{"data":{"norad_id":53736,"intl_designator":"2022-107AN","name":"STARLINK-4652","alt_names":[],"object_type":"PAYLOAD","status":"ACTIVE","operator":null,"country":"US","launch_date":"2022-09-05","launch_site_code":"AFETR","launch_vehicle":null,"mission":null,"orbit_class":"UNKNOWN","rcs_meters":null,"size_class":null,"mass_kg":null,"dimensions":null,"purposes":["comms"],"wikipedia_slug":null,"has_3d_model":false,"image_url":null,"decayed_at":null,"tle_current":{"epoch":"2026-05-25T01:58:57.476352Z","epoch_age_seconds":58190,"freshness":"FRESH","line1":"1 53736U 22107AN  26145.08260968  .00000224  00000+0  32168-4 0  9994","line2":"2 53736  53.2154 271.3695 0001272  87.5150 272.5987 15.08839956206111","mean_motion":15.08839956,"eccentricity":0.0001272,"inclination_deg":53.2154,"raan_deg":271.3695,"arg_perigee_deg":87.515,"mean_anomaly_deg":272.5987,"bstar":3.2168e-5,"rev_number":20611,"period_min":95.437557460866,"perigee_km":538.86356905192,"apogee_km":540.62347785709,"semimajor_km":6917.8805234545,"source":"CELESTRAK","updated_at":"2026-05-25T13:38:17.538698Z"}}}